Temp
3 3 3 3 3 3 3 3 3 3 3 3 3 3 2 2 2 2 2 3 3 3 3 3 3 2 2 2 2 2 1 1 1 1 1 1 1 1 1 1 1 1
3 3 3 3 3 3 3 3 3 3 3 3 2 2 2 2 2 2 2 2 3 3 3 3 3 3 2 2 2 1 1 1 1 1 1 1 1 1 1 1 1 1
3 3 3 3 3 3 3 3 2 2 2 2 2 2 2 2 2 2 2 2 2 3 3 3 3 2 2 2 2 1 1 1 1 1 1 1 1 1 1 1 1 1
3 3 3 3 3 3 3 2 2 2 2 2 2 2 2 2 2 2 2 2 2 2 3 3 2 2 2 2 2 1 1 1 1 1 1 1 1 1 1 0 0 0
2 2 2 2 3 3 2 2 2 2 2 2 2 2 2 1 1 1 1 1 2 2 3 2 2 2 2 2 2 1 1 1 1 1 1 1 1 1 0 0 0 -0
2 2 2 2 2 2 2 2 2 2 2 2 2 2 1 1 1 1 1 1 2 3 3 2 2 2 2 2 2 2 1 1 1 1 1 1 1 1 1 1 0 0
2 2 2 2 2 2 2 2 2 1 1 2 2 1 1 1 1 1 1 1 2 3 3 3 3 3 2 2 2 2 2 2 1 1 1 1 1 1 1 1 1 1
1 2 2 2 2 2 2 2 1 1 1 1 2 1 1 1 1 1 1 2 2 3 3 3 3 3 2 2 2 2 2 2 2 2 1 1 1 1 1 1 1 1
1 1 2 2 2 2 2 1 1 1 1 2 2 2 1 1 1 1 1 2 2 2 2 3 3 3 2 2 2 2 2 2 2 2 1 1 1 1 1 1 1 1
1 1 2 2 2 2 2 1 1 1 2 2 2 2 2 2 1 1 2 2 2 2 2 2 2 2 2 2 2 2 2 2 2 2 1 1 1 1 1 1 1 1
1 1 1 1 2 2 1 1 1 2 2 2 2 2 2 2 2 1 2 2 2 2 2 2 2 2 2 2 2 2 2 1 1 1 1 1 1 1 1 1 1 1
1 1 1 1 1 1 1 1 2 2 2 2 2 2 2 2 2 2 2 2 2 2 1 1 1 2 1 1 1 1 1 1 1 1 1 1 1 1 1 1 1 1
1 1 1 1 1 1 1 1 2 2 2 2 2 2 2 2 2 2 2 2 2 2 1 1 1 1 1 1 1 1 1 1 1 1 1 1 1 1 1 1 1 1
1 0 0 1 1 1 1 1 1 1 2 2 2 2 2 2 2 1 2 2 2 1 1 1 1 1 1 1 1 0 0 1 1 1 1 1 0 1 1 1 0 0
1 0 0 0 1 1 1 1 1 1 1 1 2 1 1 1 1 1 1 1 1 1 1 1 1 1 1 1 1 0 0 0 0 0 0 0 0 0 0 0 0 0
1 1 1 1 1 1 1 1 1 1 1 1 1 1 1 1 1 1 1 1 1 1 1 1 1 1 1 0 0 0 0 0 0 0 0 0 0 0 0 0 0 -0
1 1 1 1 1 1 1 1 1 2 2 1 1 1 1 1 1 1 1 1 1 1 1 1 1 0 0 0 0 0 0 0 0 0 0 0 0 0 0 -0 -0 -0
1 1 1 1 1 1 1 1 1 1 1 1 1 1 1 1 1 1 1 1 1 0 0 0 0 0 0 0 -0 -0 -0 -0 -0 -0 -0 -0 -0 -0 -0 -0 -0 -1
1 1 1 1 1 1 1 1 1 1 1 1 1 0 0 0 1 0 0 0 0 -0 -0 -0 -0 -0 -0 -0 -0 -0 -0 -0 -1 -1 -1 -1 -1 -1 -1 -1 -1 -1
1 1 1 1 1 1 1 1 1 1 1 1 0 0 -0 -0 -0 -0 -0 -0 -0 -0 -0 -0 -0 -0 -0 -0 -0 -0 -0 -0 -1 -1 -1 -1 -1 -1 -1 -1 -1 -1
1 1 1 1 1 1 1 1 1 1 0 0 -0 -0 -0 -0 -0 -0 -0 -0 -0 -1 -1 -1 -0 -0 -0 -0 -0 -0 -0 -0 -0 -0 -0 -0 -1 -1 -1 -1 -2 -2
1 1 1 1 1 1 1 0 0 0 -0 -0 -1 -1 -1 -1 -0 -0 -0 -0 -1 -1 -1 -1 -1 -1 -1 -0 -0 -0 -0 -0 0 0 0 -0 -0 -0 -1 -1 -1 -1
-0 -0 0 0 0 -0 -0 -0 -0 -0 -0 -0 -1 -1 -1 -0 -0 -0 -0 -0 -0 -1 -1 -1 -1 -1 -1 -1 -1 -1 -0 -0 -1 -1 -0 -0 -0 -0 -0 -0 -1 -1
-1 -1 -0 -0 -0 -0 -0 -0 -0 -0 -0 -1 -1 -1 -0 -0 -0 -0 -0 -0 -0 -1 -1 -1 -1 -1 -1 -1 -1 -1 -1 -1 -1 -1 -1 -1 -1 -1 -1 -1 -1 -1
-1 -1 -1 -1 -1 -1 -1 -1 -1 -1 -1 -1 -1 -1 -1 -1 -1 -1 -0 -0 -0 -1 -1 -1 -1 -1 -1 -1 -1 -1 -1 -1 -1 -1 -1 -1 -1 -1 -1 -1 -1 -1
-2 -2 -1 -1 -1 -1 -1 -1 -1 -1 -1 -1 -1 -1 -1 -1 -1 -1 -1 -1 -1 -0 -1 -1 -1 -1 -1 -1 -1 -1 -1 -1 -1 -1 -1 -2 -2 -2 -2 -2 -1 -1
Height
3142 3143 3144 3145 3146 3146 3146 3146 3146 3146 3146 3146 3146 3145 3145 3145 3144 3144 3144 3143 3144 3144 3144 3144 3144 3145 3146 3146 3147 3147 3148 3148 3148 3148 3148 3149 3149 3149 3150 3151 3151 3153
3141 3142 3143 3144 3145 3146 3146 3146 3146 3146 3146 3145 3145 3145 3144 3144 3144 3144 3143 3143 3143 3144 3144 3143 3143 3144 3145 3146 3146 3147 3147 3148 3148 3148 3148 3148 3148 3149 3149 3150 3151 3152
3140 3141 3143 3144 3145 3145 3146 3145 3145 3145 3145 3145 3144 3144 3144 3144 3143 3143 3143 3142 3142 3143 3143 3143 3143 3143 3144 3145 3145 3146 3146 3146 3147 3147 3148 3148 3148 3149 3149 3150 3151 3151
3138 3140 3142 3143 3144 3144 3145 3144 3144 3144 3144 3144 3143 3143 3143 3143 3143 3143 3142 3142 3142 3142 3142 3142 3143 3143 3144 3144 3145 3145 3145 3145 3146 3147 3148 3148 3148 3149 3149 3150 3150 3151
3137 3139 3140 3141 3142 3143 3143 3143 3143 3143 3143 3143 3142 3142 3142 3142 3142 3142 3141 3141 3141 3142 3142 3142 3142 3143 3143 3144 3144 3144 3145 3145 3146 3146 3147 3148 3149 3149 3150 3150 3151 3151
3134 3137 3139 3140 3141 3141 3142 3142 3142 3142 3142 3142 3141 3141 3141 3141 3141 3141 3140 3141 3141 3141 3142 3142 3142 3143 3143 3144 3144 3145 3145 3145 3146 3146 3147 3148 3149 3150 3150 3151 3151 3152
3133 3135 3137 3138 3139 3140 3141 3141 3141 3141 3141 3141 3140 3140 3140 3140 3140 3140 3140 3140 3140 3141 3141 3141 3142 3142 3143 3144 3145 3145 3145 3145 3146 3147 3147 3148 3149 3150 3151 3151 3152 3152
3132 3134 3135 3136 3138 3139 3140 3140 3140 3140 3140 3140 3139 3139 3139 3139 3138 3139 3139 3139 3140 3141 3141 3141 3142 3142 3143 3144 3144 3145 3145 3146 3146 3147 3147 3148 3149 3150 3151 3151 3152 3153
3132 3133 3134 3135 3137 3138 3139 3139 3139 3139 3139 3139 3139 3139 3138 3138 3137 3138 3138 3139 3140 3140 3141 3141 3142 3142 3143 3144 3144 3145 3145 3146 3146 3147 3148 3149 3149 3150 3151 3152 3152 3153
3130 3132 3133 3134 3135 3137 3138 3138 3138 3138 3138 3138 3138 3138 3137 3137 3136 3137 3138 3139 3140 3140 3141 3141 3142 3142 3143 3144 3144 3145 3145 3146 3147 3148 3148 3149 3150 3151 3152 3153 3153 3154
3128 3129 3130 3132 3134 3135 3136 3137 3137 3137 3137 3137 3137 3136 3136 3136 3136 3136 3138 3139 3140 3140 3141 3141 3142 3143 3143 3144 3144 3145 3145 3146 3147 3148 3149 3150 3151 3152 3153 3154 3154 3155
3127 3127 3128 3129 3130 3132 3133 3135 3135 3136 3136 3136 3136 3135 3135 3135 3135 3136 3138 3139 3139 3140 3141 3141 3142 3143 3143 3144 3144 3145 3145 3146 3147 3148 3149 3150 3151 3152 3153 3154 3154 3155
3125 3126 3127 3128 3128 3128 3130 3131 3133 3134 3134 3134 3134 3134 3134 3135 3135 3136 3137 3138 3139 3140 3140 3141 3141 3142 3143 3144 3144 3145 3146 3146 3147 3148 3149 3150 3151 3151 3152 3153 3154 3154
3123 3124 3125 3128 3128 3128 3128 3129 3131 3132 3132 3132 3133 3133 3133 3134 3135 3136 3137 3138 3138 3139 3140 3140 3141 3142 3143 3144 3144 3145 3146 3147 3148 3148 3149 3150 3150 3150 3151 3152 3152 3153
3122 3122 3124 3126 3128 3129 3128 3128 3129 3130 3130 3131 3131 3132 3133 3133 3134 3135 3136 3137 3137 3138 3139 3140 3141 3142 3143 3144 3144 3145 3146 3146 3147 3148 3148 3149 3149 3149 3150 3150 3151 3151
3120 3121 3123 3124 3126 3128 3128 3128 3129 3129 3129 3130 3130 3131 3132 3132 3133 3134 3135 3135 3136 3137 3139 3140 3141 3141 3142 3143 3143 3144 3145 3145 3146 3146 3147 3148 3148 3148 3149 3149 3149 3149
3118 3119 3121 3123 3125 3126 3126 3127 3128 3128 3128 3129 3129 3130 3131 3131 3132 3133 3133 3134 3135 3136 3137 3138 3139 3140 3141 3141 3142 3142 3143 3143 3144 3144 3145 3145 3146 3146 3147 3147 3147 3147
3116 3118 3119 3121 3123 3124 3124 3125 3126 3127 3128 3128 3128 3128 3129 3130 3131 3131 3132 3132 3133 3134 3135 3136 3137 3137 3138 3138 3139 3140 3140 3141 3141 3141 3142 3142 3143 3143 3143 3144 3144 3144
3115 3116 3117 3119 3120 3121 3121 3122 3124 3126 3127 3127 3127 3127 3128 3128 3129 3129 3130 3130 3130 3131 3132 3133 3134 3134 3135 3135 3136 3136 3137 3137 3138 3138 3138 3138 3139 3139 3139 3139 3139 3140
3114 3115 3116 3117 3118 3119 3120 3121 3122 3123 3124 3125 3126 3127 3127 3127 3127 3127 3127 3128 3128 3129 3130 3131 3131 3132 3132 3132 3133 3133 3133 3134 3134 3134 3134 3134 3135 3135 3135 3135 3135 3135
3114 3114 3115 3116 3117 3117 3118 3119 3120 3121 3122 3122 3123 3124 3124 3124 3124 3124 3124 3125 3126 3127 3127 3128 3128 3129 3129 3129 3129 3130 3130 3130 3130 3130 3130 3131 3131 3131 3131 3131 3131 3131
3112 3113 3114 3115 3115 3116 3117 3117 3118 3119 3119 3119 3120 3120 3121 3121 3121 3121 3122 3122 3123 3124 3124 3125 3125 3125 3126 3126 3126 3126 3126 3126 3126 3126 3127 3127 3127 3127 3127 3127 3127 3127
3110 3111 3112 3113 3113 3114 3114 3115 3115 3115 3115 3116 3116 3117 3117 3118 3118 3119 3119 3119 3119 3120 3121 3121 3121 3122 3122 3122 3122 3122 3122 3122 3121 3121 3121 3121 3122 3122 3122 3122 3123 3123
3107 3108 3110 3110 3110 3111 3111 3111 3112 3112 3112 3113 3113 3114 3114 3114 3115 3116 3116 3116 3116 3116 3117 3117 3118 3118 3118 3118 3119 3118 3118 3118 3118 3117 3117 3116 3117 3117 3117 3118 3118 3118
3104 3105 3106 3107 3107 3108 3108 3108 3109 3109 3109 3110 3110 3111 3111 3112 3112 3113 3113 3113 3113 3113 3113 3114 3114 3115 3114 3114 3114 3114 3114 3114 3114 3113 3113 3113 3112 3112 3112 3113 3113 3113
3101 3102 3103 3104 3105 3105 3105 3105 3106 3106 3107 3107 3108 3108 3109 3109 3109 3110 3110 3110 3110 3110 3109 3109 3109 3110 3110 3110 3109 3109 3109 3109 3109 3108 3108 3108 3108 3108 3108 3108 3107 3107
Wind_Speed
20 18 15 13 11 9 7 6 5 5 6 7 6 5 5 5 4 4 5 6 6 5 4 4 5 7 8 8 9 9 7 7 7 7 8 8 8 8 8 9 10 11
21 19 17 15 13 10 8 7 7 7 7 8 7 6 5 5 4 4 5 6 6 5 4 5 6 6 7 8 8 9 8 7 7 6 6 5 5 5 6 7 8 9
22 20 18 16 13 11 9 8 8 7 7 6 5 5 4 4 5 5 5 6 6 5 5 6 7 7 8 9 9 9 8 7 7 6 5 5 4 4 6 7 7 7
22 21 19 16 13 11 10 8 7 7 7 6 4 4 3 4 5 5 6 6 6 6 6 7 8 8 9 10 10 10 9 7 6 6 6 5 5 5 6 7 7 8
22 21 19 16 13 11 10 8 7 7 8 7 6 6 4 4 5 5 6 6 6 7 7 8 8 8 9 10 11 10 9 7 6 5 6 6 7 7 8 9 10 10
22 19 17 14 12 11 10 8 7 8 9 8 7 6 5 5 6 6 6 6 7 7 8 8 8 8 9 9 10 9 9 8 7 7 7 8 9 9 10 11 11 12
20 18 15 13 11 11 11 10 9 9 9 8 8 6 5 6 7 7 7 7 8 8 9 9 8 8 8 9 9 8 8 7 7 7 8 8 8 8 9 10 11 11
19 16 14 13 12 12 12 11 10 10 9 8 8 7 5 6 7 7 8 9 10 10 10 10 9 9 9 9 9 8 8 8 8 8 7 8 8 9 10 11 11 10
18 16 14 14 13 13 13 12 10 9 8 8 7 6 5 6 7 8 11 12 11 11 11 11 11 11 11 11 10 10 9 9 9 9 9 9 9 9 10 10 11 11
19 17 15 15 15 14 13 11 9 8 7 7 6 5 5 5 5 10 14 13 12 12 12 12 12 12 12 12 12 12 11 10 10 11 11 11 11 10 9 9 10 10
22 20 19 18 16 13 11 9 8 8 7 6 5 4 3 3 4 12 15 14 13 13 12 12 12 12 12 13 13 13 12 13 12 12 12 12 11 10 9 9 8 8
21 21 20 18 15 12 10 9 10 9 7 6 4 4 3 2 7 14 15 14 14 13 12 12 12 12 12 12 13 12 13 13 13 13 13 12 10 9 9 8 7 6
16 16 15 12 11 12 11 11 11 9 8 6 5 5 6 6 8 13 15 14 14 13 13 12 12 12 12 12 12 12 12 12 13 13 12 10 9 9 8 7 6 5
12 12 12 11 12 13 12 11 11 10 9 7 7 7 8 7 8 11 13 13 12 12 12 12 12 12 11 11 12 12 11 11 11 11 11 10 10 9 8 7 6 6
10 11 14 14 14 14 12 11 12 12 10 9 8 8 8 9 9 10 11 11 11 12 12 12 12 12 11 11 11 11 11 12 11 11 11 11 11 11 10 9 9 9
13 14 16 17 16 15 14 13 13 13 11 10 9 9 9 11 11 12 12 11 12 12 12 12 12 12 12 12 12 12 12 13 13 13 14 14 14 14 14 14 13 13
15 15 16 18 17 15 14 13 13 13 12 11 11 11 11 12 13 14 14 14 14 14 14 14 14 13 14 14 15 15 15 16 16 17 18 18 18 18 18 18 18 18
16 16 17 20 20 17 15 14 12 12 12 11 12 12 13 13 13 14 15 16 16 16 15 15 15 15 16 16 17 17 18 19 20 21 21 21 22 22 22 23 23 23
17 17 20 22 22 20 20 20 18 16 16 15 13 12 12 13 13 14 16 16 17 16 16 16 16 17 18 18 19 20 20 21 21 21 22 22 22 23 24 25 26 26
20 20 22 23 23 23 24 25 24 23 21 19 17 14 13 12 12 13 15 16 15 14 14 15 16 17 18 19 19 20 21 22 22 23 24 24 24 24 24 25 26 27
21 23 24 23 23 24 25 26 25 23 21 18 16 16 15 15 15 16 17 17 16 14 13 13 14 15 16 17 18 18 19 21 21 22 22 23 24 25 26 27 27 28
21 23 23 23 23 23 23 22 21 20 18 16 15 15 15 15 16 17 18 18 17 17 16 15 15 16 16 16 17 17 19 20 20 20 21 21 22 23 25 27 28 29
22 22 22 22 22 21 21 21 20 19 18 18 18 18 18 18 18 19 19 19 19 18 18 17 17 17 18 18 18 19 20 21 22 24 24 24 24 25 25 26 27 28
23 22 22 23 23 21 21 21 21 21 20 20 20 20 21 21 22 22 22 23 22 22 22 21 20 21 21 21 21 21 22 23 25 27 28 28 28 29 30 29 30 30
23 23 23 23 23 23 23 23 23 23 22 22 22 22 23 24 24 25 25 25 26 26 26 26 25 25 25 26 26 26 26 26 27 29 30 30 31 32 32 32 33 34
20 22 23 23 23 23 24 24 24 24 24 24 24 25 25 26 27 27 28 28 29 30 30 31 31 30 30 31 32 32 32 31 31 32 32 32 33 33 33 33 35 35
Wind_Direction
200 207 206 202 210 218 230 255 272 281 285 282 284 277 262 264 265 254 249 241 235 217 178 173 184 189 190 194 197 192 187 192 201 207 210 211 213 211 214 223 227 229
204 208 208 211 220 231 246 264 273 275 280 283 278 265 257 253 241 236 241 238 235 219 178 172 181 182 185 189 191 192 194 192 186 186 196 203 203 198 197 204 212 216
207 211 215 219 226 242 257 269 275 276 287 297 280 260 258 244 233 235 240 242 235 214 179 173 179 179 184 187 186 191 197 192 178 173 182 195 200 197 191 192 200 207
210 213 219 224 233 250 264 271 274 283 302 310 293 285 278 245 243 240 241 246 232 205 180 175 180 178 182 186 187 191 196 193 184 177 179 185 189 188 187 190 197 208
213 214 218 228 242 258 268 270 276 293 308 311 300 294 287 259 255 249 247 242 218 195 176 174 180 178 180 187 189 191 192 192 189 182 178 177 174 174 179 186 194 205
211 213 220 234 249 265 271 270 279 297 306 308 300 291 283 265 255 253 249 225 198 185 170 169 177 175 177 184 187 186 186 187 183 177 175 174 173 175 179 184 192 202
210 214 224 239 256 270 272 269 280 296 301 298 290 285 279 260 249 247 234 201 181 174 164 162 164 164 167 175 179 176 172 172 171 171 173 173 176 181 179 179 187 195
209 217 229 245 260 268 267 270 283 292 290 283 278 280 275 256 247 233 207 183 170 166 158 152 149 150 154 160 162 156 151 153 153 157 163 164 168 174 172 170 171 177
212 219 233 249 260 261 262 272 282 282 276 269 270 277 269 259 250 216 190 175 167 162 153 147 146 146 149 149 147 144 143 144 144 146 150 153 160 167 166 162 159 160
212 221 238 252 252 251 259 270 269 261 256 255 264 268 261 269 245 194 180 172 166 160 151 149 150 149 149 147 146 147 144 143 146 149 151 153 158 160 158 156 155 160
213 218 229 237 238 244 257 259 243 235 235 240 251 245 243 270 199 177 174 171 167 162 156 155 155 153 152 150 151 152 149 148 154 156 154 155 158 157 157 158 161 171
227 220 217 216 218 232 244 232 222 221 222 224 227 213 199 177 168 172 175 175 172 167 162 161 161 159 156 155 158 159 156 155 160 163 160 160 164 167 170 175 183 193
233 223 222 221 219 224 222 211 210 213 212 213 205 191 183 169 169 177 182 183 181 176 171 171 173 172 166 165 168 169 168 166 168 172 172 172 180 189 193 196 203 212
225 219 229 243 247 237 218 202 206 209 206 204 195 187 185 178 178 188 191 192 193 190 185 184 187 187 183 180 181 183 186 186 185 187 191 194 202 212 218 222 227 233
230 226 222 227 240 240 222 203 203 204 201 198 194 188 187 187 193 200 202 203 206 206 205 203 202 204 204 201 201 202 206 210 211 212 214 219 224 229 236 243 248 252
234 234 225 218 223 230 227 218 212 208 200 192 192 193 193 194 198 204 208 212 214 216 220 220 219 221 223 223 223 224 227 231 235 236 237 239 241 243 247 251 255 258
228 226 221 215 215 220 226 226 223 217 206 193 189 193 200 202 202 205 209 213 215 217 220 224 226 228 231 235 238 240 242 245 248 250 251 251 252 253 254 255 257 258
219 212 206 207 211 217 222 225 227 229 225 215 201 196 201 205 206 210 212 214 216 216 216 219 221 224 228 231 235 240 244 247 251 254 256 258 260 261 261 260 261 261
224 215 205 205 210 213 216 219 222 229 235 232 222 213 209 209 212 215 217 219 220 219 218 217 217 220 225 227 229 232 235 239 242 247 252 255 258 261 263 263 263 263
228 221 213 212 213 214 215 216 219 225 230 230 229 228 224 221 225 227 227 229 228 225 224 223 221 222 225 228 230 231 233 236 238 241 245 248 251 253 255 258 261 263
223 221 219 218 218 217 217 218 220 225 230 230 232 235 235 234 238 241 242 243 241 238 236 234 231 227 226 229 233 235 237 240 241 242 245 248 251 251 251 252 254 257
219 219 219 219 219 219 220 223 226 231 236 238 240 244 244 244 244 247 251 253 252 250 246 242 239 237 236 236 238 240 244 247 250 252 254 255 256 256 254 253 251 253
219 220 220 219 220 222 224 228 232 236 240 244 246 248 249 249 248 249 252 255 256 253 247 242 241 244 246 247 247 250 253 256 261 264 266 268 268 266 264 261 258 256
225 226 228 227 226 227 230 234 237 240 243 246 249 252 254 253 252 250 251 253 255 254 249 245 245 248 252 253 254 257 258 259 262 266 270 273 274 273 273 272 270 267
234 233 234 233 232 233 236 239 241 242 244 245 247 248 251 253 254 254 253 253 254 255 254 254 254 255 258 260 261 260 260 259 260 263 266 268 268 270 272 272 271 270
237 237 239 239 237 237 238 241 243 244 246 247 249 250 251 253 255 256 257 256 255 255 255 257 258 258 259 262 263 263 263 263 263 263 264 265 265 267 267 268 270 272